329  
ASHW40 PHFO 311810  
RWRHI  
 
WEATHER ROUNDUP FOR HAWAII  
NATIONAL WEATHER SERVICE HONOLULU HI  
800 AM HST FRI OCT 31 2014  
 
THIS IS AN AUTOMATED REPORT THAT HAS NOT BEEN QUALITY CONTROLLED.  
 
NOTE..."FAIR" INDICATES FEW OR NO CLOUDS BELOW 12,000 FEET WITH NO  
SIGNIFICANT WEATHER AND/OR S TO VISIBILITY
.  
 
* - THESE SITES REPORT LIMITED FIELDS  
 
HIZ001>004-311900-  
KAUAI-NIIHAU-  
 
CITY SKY/WX TMP DP RH WIND PRES REMARKS
 
LIHUE APT CLOUDY 75 70 83 NE14 30.11R  
PORT ALLEN* N/A 73 N/A N/A NE8G16 N/A  
POIPU* N/A 73 N/A N/A NE6G14 N/A  
PRINCEVILLE* N/A 72 N/A N/A MISG N/A  
KOKOLE POINT* NOT AVBL  
MOLOAA DAIRY* NOT AVBL  
WAIMEA HTS* NOT AVBL  
PUU OPAE* NOT AVBL  
PUU LUA* NOT AVBL  
MAKAHA RIDGE* NOT AVBL  

 
 
HIZ005>011-311900-  
OAHU-  
 
CITY SKY/WX TMP DP RH WIND PRES REMARKS
 
HONOLULU PTSUNNY 79 69 71 NE12 30.06R  
KALAELOA MOSUNNY 77 69 76 CALM 30.08R  
KANEOHE MCB PTSUNNY 78 67 68 E10G21 30.08R  
WHEELER FIELD FAIR 73 68 83 VRB6 30.09R  
BELLOWS* NOT AVBL  
KAHUKU* NOT AVBL  
WHEELER* NOT AVBL  
WAIANAE HARBOR NOT AVBL  
DILLINGHAM* N/A 66 64 94 E1G7 N/A  
KAHUKU TRN* N/A 81 79 94 E9G22 N/A  
KAWAILOA* N/A 72 68 88 E8G17 N/A  
KII* N/A 75 72 88 E20G25 N/A  
MAKUA RANGE* N/A 77 70 78 NE6 N/A  
OAHU FOREST NW NOT AVBL  
SCHOFIELD BRK* N/A 66 64 94 CALM N/A  
SCHOFIELD S* NOT AVBL  
WAIANAE VLY* NOT AVBL  
KUAOKALA* NOT AVBL  
HONOULIUULI* NOT AVBL  
MOKUOLOE IS* N/A N/A N/A N/A MISG N/A  
PALEHUA* NOT AVBL  
WAIAWA PHB* NOT AVBL  

 
 
HIZ012>013-311900-  
MOLOKAI-  
 
CITY SKY/WX TMP DP RH WIND PRES REMARKS
 
MOLOKAI AIRPT LGT RAIN 77 73 87 NE13 30.08R  
KALAUPAPA NOT AVBL  
MAKAPULAPAI* NOT AVBL  
MOLOKAI 1* NOT AVBL  
PUU ALII* NOT AVBL  

 
 
HIZ016-311900-  
KAHOOLAWE-  
 
CITY SKY/WX TMP DP RH WIND PRES REMARKS
 
KAHOOLAWE* NOT AVBL  
HAKIOAWA* NOT AVBL  
HONOKANAIA* N/A 82 67 59 N13G29 30.06R  
KANELOA* N/A 75 68 78 E22G35 29.24R  
KEALIALALO* NOT AVBL  
LUA MAKIKA* NOT AVBL  

 
 
HIZ014>015-311900-  
LANAI-  
 
CITY SKY/WX TMP DP RH WIND PRES REMARKS
 
LANAI CITY FAIR 75 69 81 NE5 30.12R  
LANAI 1* NOT AVBL  

 
 
HIZ017>028-311900-  
MAUI-  
 
CITY SKY/WX TMP DP RH WIND PRES REMARKS
 
KAHULUI MOSUNNY 80 69 69 NE18 30.06R  
KAPALUA-W MAUI MOSUNNY 77 72 83 NE8 30.05  
HANA AIRPORT CLOUDY 75 72 88 E5 30.11R  
HANA* NOT AVBL  
HALEAKALA SUMM N/A 45 23 42 NE16G32 N/A  
MAALAEA BAY* NOT AVBL  
HALEAKALA* NOT AVBL  
KAUPO GAP* NOT AVBL  
KULA 1* N/A 54 37 53 CALM N/A  

 
 
HIZ023>026-311900-  
BIG ISLAND OF HAWAII COAST AND LOWER SLOPES-  
 
CITY SKY/WX TMP DP RH WIND PRES REMARKS
 
KAILUA KONA SUNNY 80 69 69 CALM 30.01R  
HILO PTSUNNY 73 65 75 CALM 30.08R  
HONOKAA* NOT AVBL  
KAWAIHAE MWT* NOT AVBL  
KAWAIHAE* N/A 84 N/A N/A SE12G18 N/A  
SOUTH POINT* NOT AVBL  
UPOLU AIRPORT* NOT AVBL  
KAMUELA* CLEAR 68 55 64 E9 30.14S  
HAKALAU* N/A 46 41 81 SW3 N/A  
KALOKO-HONOKO* NOT AVBL  
PALI 2* N/A 72 54 53 N15G23 N/A  
KEALAKOMO* N/A N/A N/A N/A VRB16G29 N/A  
KAUPULEHU* NOT AVBL  
KAPAPALA* NOT AVBL  
LOWER KAHUKU* NOT AVBL  
PUHE CS* NOT AVBL  
PUHO CS* NOT AVBL  
PTA KEAMUKU* N/A 68 57 68 NW1G10 N/A  
WAIKOLOA* NOT AVBL  

 
 
HIZ027>028-311900-  
BIG ISLAND OF HAWAII INTERIOR AND SUMMMITS-  
 
CITY SKY/WX TMP DP RH WIND PRES REMARKS
 
BRADSHAW FIELD CLOUDY 56 46 69 SE8G20 30.37R  
MK VISITOR CEN NOT AVBL  
MAUNA KEA* N/A 37 -13 11 SE9 N/A  
MAUNA LOA* NOT AVBL  
MAUNA LOA 1* NOT AVBL  
PTA KIPUKA* N/A 73 64 73 W6G14 N/A  
PTA RANGE 17* N/A 61 39 44 E15G24 N/A  
PTA WEST* N/A 66 41 39 E12G23 N/A  
NENE CABIN* NOT AVBL  
AHUMOA* NOT AVBL  
PTA PORTABLE* NOT AVBL  
PUU MALI* NOT AVBL  

 
 
HIC003-311900-  
NORTHWEST ISLANDS-  
 
CITY SKY/WX TMP DP RH WIND PRES REMARKS
 
MIDWAY ISLAND MOCLDY 75 73 94 S23G35 30.02R FOG  
MIDWAY NOS* NOT AVBL  
FRENCH FRIGATE NOT AVBL  

 
 
PHZ110>124-180-311900-  
BUOY REPORTS  
 
STATION/POSITION TIME TEMP WIND PRES WAVE SWELL
 
AIR SEA DIR/SP/G HT/PER HT/DIR  
(UTC) (F) (DEG/KT/KT) (MB) (FT/S) (FT/D)  
BUOY 51001 NOT AVBL  
BUOY 51101 NOT AVBL  
BUOY 51100 1800 78 79 80/ 17/ 21 1020.4R  
BUOY 51003 1700 77 81 110/ 16/ 21 1016.1R 10/10 8  
BUOY 51004 1735 77 81 70/ 12/ 17 1015.8R 8/11 7/350  
BARBERS PT BUOY NOT AVBL  
WAIMEA BAY BUOY 1800 81 N/A 10/10 3/360  
KAILUA BAY BUOY 1800 81 N/A 10/10 3/ 10  
LANAI BUOY 1800 81 N/A 3/13 2/200  
BARBERS PT 2 1800 81 N/A 5/ 7 2/200  
PAUWELA MAUI 1800 80 N/A 9/ 9 3  
HILO 1800 80 N/A 8/11 3  
KANEOHE BAY BUOY NOT AVBL  
HANALEI KAUAI NOT AVBL  
KAHULUI HARBOR 1800 78 79 30/ 16/ 19 1017.8R  
HONOLULU HARBOR 1800 78 60/ 5/ 7 1018.4R  
KILO NALU NOT AVBL  
HILO HARBOR 1800 73 180/ 3/ 4 1017.8R  
MOKUOLOE 1800 80 1018.8R  
NAWILIWILI 1800 83 N/A  
WHOTS BUOY NOT AVBL  
BUOY 51028 NOT AVBL  

 
   
.....................KEY.....................................
 
 
SKY/WX - SKY CONDITIONS/PRESENT WEATHER  
TMP - TEMPERATURE IN FAHRENHEIT  
DWPT - DEWPOINT IN FAHRENHEIT  
RH - RELATIVE HUMIDITY IN PERCENT  
WIND - DIRECTION AND SPEED /MPH FOR ISLANDS...KTS FOR BUOYS/  
PRES - MEAN SEA LEVEL PRESSURE IN INCHES OF HG  
VSB - VISIBILITY IN MILES  
HX - HEAT INDEX  
WCI - WIND CHILL INDEX  
VRB - VARIABLE WIND DIRECTION  
N/A - NOT AVAILABLE  
 
CLICK HERE TO GO TO PREVIOUS BULLETINS.

The Nexlab HI Page Main Text Page

The Nexlab HI Page Main Text Page